BON36PS FALE-FQBR

Flight info

Callsign BON36PS
Flight time 1h 48m
Altitude 35000
Route FALE/06 ITMIL UB529 VMA UM310 ETLAM ETLAM1A
Aircraft A359/H-SDE2E3GHIJ3J4J5LM1ORWXY/LB1D1

Departure

Time 2026-05-07 17:24
Airport King Shaka International Airport (FALE)

Arrival

Time 2026-05-07 19:13
Airport Beira International Airport (FQBR)
Time Latitude Longitude Altitude Speed Heading
2026-05-07 17:05 -29.61658 31.10694 313 ft 0 kts 127°
2026-05-07 17:16 -29.61656 31.10691 312 ft 3 kts 127°
2026-05-07 17:16 -29.61640 31.10667 290 ft 4 kts 127°
2026-05-07 17:17 -29.61623 31.10643 317 ft 4 kts 122°
2026-05-07 17:17 -29.61613 31.10615 309 ft 4 kts 98°
2026-05-07 17:17 -29.61614 31.10586 309 ft 4 kts 64°
2026-05-07 17:17 -29.61624 31.10570 310 ft 0 kts 37°
2026-05-07 17:20 -29.61622 31.10572 310 ft 3 kts 37°
2026-05-07 17:20 -29.61592 31.10597 311 ft 6 kts 37°
2026-05-07 17:20 -29.61554 31.10632 315 ft 8 kts 42°
2026-05-07 17:20 -29.61525 31.10701 314 ft 13 kts 85°
2026-05-07 17:21 -29.61565 31.10789 315 ft 13 kts 128°
2026-05-07 17:21 -29.61621 31.10875 315 ft 14 kts 127°
2026-05-07 17:21 -29.61682 31.10968 316 ft 15 kts 127°
2026-05-07 17:21 -29.61749 31.11067 316 ft 16 kts 128°
2026-05-07 17:22 -29.61837 31.11106 314 ft 15 kts 206°
2026-05-07 17:22 -29.61925 31.11039 314 ft 16 kts 225°
2026-05-07 17:22 -29.62013 31.10958 315 ft 17 kts 218°
2026-05-07 17:22 -29.62107 31.10873 316 ft 18 kts 218°
2026-05-07 17:23 -29.62209 31.10785 313 ft 19 kts 217°
2026-05-07 17:23 -29.62319 31.10692 316 ft 20 kts 217°
2026-05-07 17:23 -29.62432 31.10681 314 ft 18 kts 129°
2026-05-07 17:23 -29.62463 31.10805 310 ft 15 kts 44°
2026-05-07 17:24 -29.62262 31.10983 315 ft 69 kts 36°
2026-05-07 17:24 -29.61709 31.11467 311 ft 129 kts 37°
2026-05-07 17:24 -29.60862 31.12192 452 ft 164 kts 36°
2026-05-07 17:24 -29.59976 31.12937 1215 ft 155 kts 38°
2026-05-07 17:25 -29.59121 31.13686 1799 ft 151 kts 38°
2026-05-07 17:25 -29.58294 31.14509 2123 ft 167 kts 40°
2026-05-07 17:25 -29.57349 31.15421 2407 ft 188 kts 40°
2026-05-07 17:25 -29.56285 31.16435 2645 ft 211 kts 40°
2026-05-07 17:26 -29.55109 31.17557 3039 ft 227 kts 40°
2026-05-07 17:26 -29.53911 31.18882 3316 ft 251 kts 45°
2026-05-07 17:26 -29.52635 31.20382 3571 ft 274 kts 46°
2026-05-07 17:26 -29.51285 31.22014 4038 ft 288 kts 47°
2026-05-07 17:27 -29.49888 31.23734 4521 ft 301 kts 47°
2026-05-07 17:27 -29.48433 31.25537 5032 ft 314 kts 46°
2026-05-07 17:27 -29.46942 31.27384 5528 ft 326 kts 46°
2026-05-07 17:27 -29.45365 31.29329 6038 ft 339 kts 46°
2026-05-07 17:28 -29.43727 31.31343 6540 ft 352 kts 46°
2026-05-07 17:28 -29.42028 31.33431 6961 ft 366 kts 46°
2026-05-07 17:28 -29.40256 31.35610 7313 ft 380 kts 47°
2026-05-07 17:28 -29.38443 31.37841 7999 ft 384 kts 47°
2026-05-07 17:29 -29.36612 31.40094 8688 ft 389 kts 46°
2026-05-07 17:29 -29.34755 31.42376 9343 ft 395 kts 46°
2026-05-07 17:29 -29.32871 31.44692 10008 ft 399 kts 46°
2026-05-07 17:29 -29.30974 31.47020 10706 ft 401 kts 46°
2026-05-07 17:30 -29.29064 31.49363 11408 ft 403 kts 45°
2026-05-07 17:30 -29.27143 31.51717 12098 ft 405 kts 45°
2026-05-07 17:30 -29.25215 31.54089 12793 ft 407 kts 45°
2026-05-07 17:30 -29.23267 31.56459 13412 ft 411 kts 43°
2026-05-07 17:31 -29.21071 31.58545 13931 ft 411 kts 31°
2026-05-07 17:31 -29.18541 31.60062 14466 ft 411 kts 21°
2026-05-07 17:31 -29.15874 31.61274 14981 ft 413 kts 17°
2026-05-07 17:31 -29.13136 31.62317 15571 ft 414 kts 14°
2026-05-07 17:32 -29.10365 31.63288 16074 ft 419 kts 13°
2026-05-07 17:32 -29.07563 31.64245 16588 ft 423 kts 13°
2026-05-07 17:32 -29.04743 31.65205 17089 ft 425 kts 12°
2026-05-07 17:32 -29.01892 31.66205 17701 ft 430 kts 13°
2026-05-07 17:33 -28.99038 31.67242 18371 ft 433 kts 12°
2026-05-07 17:33 -28.96167 31.68278 18887 ft 435 kts 13°
2026-05-07 17:33 -28.93270 31.69327 19400 ft 438 kts 12°
2026-05-07 17:33 -28.90358 31.70390 19971 ft 438 kts 12°
2026-05-07 17:34 -28.87487 31.71439 20955 ft 428 kts 12°
2026-05-07 17:34 -28.84682 31.72460 21936 ft 419 kts 11°
2026-05-07 17:34 -28.81969 31.73447 22955 ft 411 kts 11°
2026-05-07 17:34 -28.79278 31.74433 23975 ft 400 kts
2026-05-07 17:35 -28.76659 31.75383 24691 ft 394 kts
2026-05-07 17:35 -28.74023 31.76323 25169 ft 398 kts
2026-05-07 17:35 -28.71374 31.77279 25687 ft 402 kts
2026-05-07 17:35 -28.68715 31.78241 26281 ft 400 kts
2026-05-07 17:36 -28.66044 31.79193 26748 ft 404 kts
2026-05-07 17:36 -28.63353 31.80149 27201 ft 405 kts
2026-05-07 17:36 -28.60664 31.81110 27724 ft 406 kts
2026-05-07 17:36 -28.57960 31.82086 28057 ft 410 kts
2026-05-07 17:37 -28.55209 31.83053 28264 ft 419 kts
2026-05-07 17:37 -28.52406 31.84044 28431 ft 425 kts
2026-05-07 17:37 -28.49559 31.85055 28639 ft 433 kts
2026-05-07 17:37 -28.46672 31.86100 28837 ft 439 kts
2026-05-07 17:38 -28.43721 31.87172 29072 ft 448 kts
2026-05-07 17:38 -28.40732 31.88265 29281 ft 457 kts
2026-05-07 17:38 -28.37686 31.89363 29491 ft 461 kts
2026-05-07 17:38 -28.34596 31.90467 29675 ft 469 kts
2026-05-07 17:39 -28.31458 31.91579 29932 ft 473 kts
2026-05-07 17:39 -28.28289 31.92695 30101 ft 480 kts
2026-05-07 17:39 -28.25082 31.93840 30208 ft 485 kts
2026-05-07 17:39 -28.21849 31.94999 30331 ft 490 kts
2026-05-07 17:40 -28.15311 31.97345 30520 ft 496 kts
2026-05-07 17:40 -28.08720 31.99708 30746 ft 496 kts
2026-05-07 17:41 -28.05431 32.00884 30914 ft 496 kts
2026-05-07 17:41 -28.02140 32.02060 30979 ft 496 kts
2026-05-07 17:41 -27.95558 32.04403 31249 ft 495 kts
2026-05-07 17:42 -27.92283 32.05568 31633 ft 489 kts
2026-05-07 17:42 -27.89093 32.06710 32519 ft 474 kts
2026-05-07 17:42 -27.85999 32.07822 33475 ft 459 kts
2026-05-07 17:42 -27.82988 32.08900 34235 ft 449 kts
2026-05-07 17:43 -27.80012 32.09952 34543 ft 449 kts
2026-05-07 17:43 -27.77025 32.10996 34775 ft 450 kts
2026-05-07 17:43 -27.74035 32.12043 35049 ft 450 kts
2026-05-07 17:43 -27.71045 32.13093 35331 ft 450 kts
2026-05-07 17:44 -27.68053 32.14149 35538 ft 450 kts
2026-05-07 17:44 -27.65059 32.15207 35753 ft 451 kts
2026-05-07 17:44 -27.62102 32.16250 35950 ft 452 kts
2026-05-07 17:44 -27.59095 32.17310 36174 ft 453 kts
2026-05-07 17:45 -27.56087 32.18369 36426 ft 453 kts
2026-05-07 17:45 -27.53081 32.19428 36675 ft 453 kts
2026-05-07 17:45 -27.50071 32.20489 36846 ft 454 kts
2026-05-07 17:45 -27.47057 32.21549 36877 ft 454 kts
2026-05-07 17:46 -27.41039 32.23669 36872 ft 453 kts
2026-05-07 17:46 -27.35004 32.25791 36881 ft 454 kts
2026-05-07 17:47 -27.28970 32.27909 36887 ft 454 kts
2026-05-07 17:47 -27.22935 32.30025 36880 ft 454 kts
2026-05-07 17:48 -27.16903 32.32138 36884 ft 454 kts
2026-05-07 17:48 -27.10864 32.34250 36885 ft 454 kts
2026-05-07 17:49 -27.04829 32.36359 36889 ft 454 kts
2026-05-07 17:49 -26.98819 32.38458 36891 ft 452 kts
2026-05-07 17:50 -26.92810 32.40553 36888 ft 452 kts
2026-05-07 17:50 -26.86798 32.42599 36880 ft 448 kts
2026-05-07 17:51 -26.80729 32.43897 36886 ft 443 kts
2026-05-07 17:51 -26.74646 32.44995 36888 ft 442 kts 359°
2026-05-07 17:52 -26.68561 32.46056 36892 ft 442 kts 359°
2026-05-07 17:52 -26.63512 32.46942 36889 ft 442 kts 359°
2026-05-07 17:53 -26.56449 32.48185 36882 ft 443 kts 360°
2026-05-07 17:53 -26.51346 32.49088 36889 ft 443 kts 360°
2026-05-07 17:54 -26.45257 32.50164 36891 ft 443 kts 360°
2026-05-07 17:54 -26.39162 32.51241 36886 ft 443 kts 360°
2026-05-07 17:55 -26.33070 32.52317 36888 ft 443 kts 360°
2026-05-07 17:55 -26.26973 32.53392 36886 ft 444 kts
2026-05-07 17:56 -26.20870 32.54469 36884 ft 444 kts
2026-05-07 17:56 -26.14769 32.55542 36884 ft 444 kts
2026-05-07 17:57 -26.08667 32.56613 36884 ft 444 kts
2026-05-07 17:57 -26.02603 32.57677 36875 ft 444 kts
2026-05-07 17:58 -25.96495 32.58747 36857 ft 444 kts
2026-05-07 17:58 -25.90365 32.59819 36859 ft 450 kts
2026-05-07 17:59 -25.87249 32.60459 36857 ft 461 kts
2026-05-07 17:59 -25.84132 32.61432 36859 ft 468 kts
2026-05-07 17:59 -25.77879 32.63635 36864 ft 475 kts
2026-05-07 18:00 -25.71588 32.65952 36885 ft 478 kts
2026-05-07 18:00 -25.65267 32.68274 36879 ft 479 kts
2026-05-07 18:01 -25.58941 32.70577 36886 ft 478 kts
2026-05-07 18:01 -25.52611 32.72869 36888 ft 478 kts
2026-05-07 18:02 -25.43111 32.76300 36887 ft 480 kts
2026-05-07 18:03 -25.36753 32.78596 36891 ft 481 kts
2026-05-07 18:03 -25.30393 32.80891 36884 ft 481 kts
2026-05-07 18:04 -25.24036 32.83179 36887 ft 481 kts
2026-05-07 18:04 -25.17681 32.85467 36878 ft 481 kts 10°
2026-05-07 18:05 -25.11301 32.87754 36892 ft 482 kts 10°
2026-05-07 18:05 -25.04964 32.90025 36892 ft 483 kts 10°
2026-05-07 18:06 -24.98565 32.92317 36894 ft 483 kts 10°
2026-05-07 18:06 -24.92167 32.94606 36900 ft 483 kts 10°
2026-05-07 18:07 -24.85763 32.96892 36901 ft 484 kts 10°
2026-05-07 18:07 -24.79352 32.99186 36898 ft 485 kts 10°
2026-05-07 18:08 -24.72942 33.01470 36903 ft 484 kts 10°
2026-05-07 18:08 -24.66525 33.03749 36907 ft 484 kts 10°
2026-05-07 18:09 -24.60113 33.06026 36898 ft 485 kts 11°
2026-05-07 18:09 -24.53742 33.08399 36916 ft 489 kts 13°
2026-05-07 18:10 -24.47368 33.11064 36918 ft 490 kts 13°
2026-05-07 18:10 -24.41003 33.13743 36904 ft 490 kts 13°
2026-05-07 18:11 -24.34623 33.16380 36916 ft 490 kts 13°
2026-05-07 18:11 -24.28244 33.18989 36919 ft 489 kts 13°
2026-05-07 18:12 -24.21868 33.21587 36924 ft 489 kts 13°
2026-05-07 18:12 -24.15497 33.24185 36925 ft 489 kts 13°
2026-05-07 18:13 -24.09122 33.26779 36930 ft 489 kts 13°
2026-05-07 18:13 -24.02747 33.29374 36905 ft 489 kts 13°
2026-05-07 18:14 -23.96370 33.31967 36931 ft 489 kts 13°
2026-05-07 18:14 -23.89987 33.34560 36939 ft 490 kts 13°
2026-05-07 18:15 -23.83597 33.37151 36935 ft 490 kts 13°
2026-05-07 18:15 -23.77204 33.39739 36944 ft 490 kts 13°
2026-05-07 18:16 -23.70970 33.42262 36940 ft 490 kts 14°
2026-05-07 18:16 -23.64575 33.44846 36947 ft 490 kts 14°
2026-05-07 18:17 -23.58174 33.47432 36944 ft 490 kts 14°
2026-05-07 18:17 -23.51815 33.49998 36952 ft 490 kts 14°
2026-05-07 18:18 -23.45421 33.52591 36953 ft 491 kts 14°
2026-05-07 18:18 -23.39018 33.55195 36954 ft 491 kts 14°
2026-05-07 18:19 -23.32617 33.57793 36956 ft 491 kts 14°
2026-05-07 18:19 -23.26201 33.60385 36958 ft 491 kts 13°
2026-05-07 18:20 -23.19751 33.62800 36958 ft 490 kts 12°
2026-05-07 18:20 -23.13300 33.65156 36938 ft 490 kts 12°
2026-05-07 18:21 -23.06829 33.67542 36963 ft 491 kts 13°
2026-05-07 18:21 -23.00365 33.69944 36960 ft 491 kts 13°
2026-05-07 18:22 -22.93908 33.72348 36964 ft 490 kts 13°
2026-05-07 18:22 -22.87451 33.74748 36965 ft 491 kts 13°
2026-05-07 18:23 -22.80991 33.77146 36956 ft 491 kts 13°
2026-05-07 18:23 -22.74531 33.79547 36966 ft 491 kts 13°
2026-05-07 18:24 -22.68064 33.81942 36971 ft 491 kts 13°
2026-05-07 18:24 -22.61604 33.84332 36971 ft 491 kts 13°
2026-05-07 18:25 -22.55136 33.86723 36972 ft 491 kts 13°
2026-05-07 18:25 -22.48668 33.89114 36964 ft 491 kts 13°
2026-05-07 18:26 -22.42198 33.91505 36984 ft 491 kts 12°
2026-05-07 18:26 -22.35767 33.93873 36979 ft 491 kts 13°
2026-05-07 18:27 -22.29300 33.96258 36970 ft 491 kts 13°
2026-05-07 18:27 -22.22848 33.98638 36967 ft 489 kts 12°
2026-05-07 18:28 -22.16399 34.01012 36977 ft 490 kts 12°
2026-05-07 18:28 -22.09941 34.03372 36977 ft 489 kts 12°
2026-05-07 18:29 -22.03478 34.05696 36977 ft 490 kts 12°
2026-05-07 18:29 -21.97019 34.08022 36983 ft 489 kts 12°
2026-05-07 18:30 -21.90550 34.10352 36979 ft 491 kts 12°
2026-05-07 18:30 -21.84075 34.12685 36985 ft 491 kts 12°
2026-05-07 18:31 -21.77595 34.15015 36979 ft 491 kts 12°
2026-05-07 18:31 -21.71113 34.17344 36982 ft 491 kts 12°
2026-05-07 18:32 -21.64631 34.19672 36961 ft 491 kts 11°
2026-05-07 18:32 -21.58143 34.22000 36971 ft 492 kts 11°
2026-05-07 18:32 -21.54916 34.23159 36534 ft 487 kts 11°
2026-05-07 18:33 -21.51693 34.24312 35715 ft 490 kts 12°
2026-05-07 18:33 -21.48447 34.25475 34935 ft 493 kts 12°
2026-05-07 18:33 -21.45192 34.26640 34199 ft 494 kts 12°
2026-05-07 18:33 -21.41930 34.27806 33409 ft 494 kts 13°
2026-05-07 18:34 -21.38663 34.28974 32561 ft 495 kts 13°
2026-05-07 18:34 -21.35395 34.30141 31691 ft 496 kts 13°
2026-05-07 18:34 -21.32116 34.31313 30828 ft 497 kts 13°
2026-05-07 18:34 -21.28878 34.32470 29987 ft 498 kts 13°
2026-05-07 18:35 -21.25544 34.33661 29009 ft 498 kts 13°
2026-05-07 18:35 -21.22303 34.34817 28133 ft 498 kts 13°
2026-05-07 18:35 -21.19009 34.35995 27731 ft 487 kts 13°
2026-05-07 18:35 -21.15874 34.37116 27438 ft 475 kts 13°
2026-05-07 18:36 -21.12775 34.38223 27180 ft 464 kts 13°
2026-05-07 18:36 -21.09747 34.39303 26920 ft 453 kts 13°
2026-05-07 18:36 -21.06788 34.40358 26653 ft 443 kts 13°
2026-05-07 18:36 -21.03887 34.41389 26227 ft 437 kts 13°
2026-05-07 18:37 -21.01020 34.42407 25893 ft 430 kts 13°
2026-05-07 18:37 -20.98225 34.43420 25662 ft 421 kts 15°
2026-05-07 18:37 -20.95586 34.44732 25452 ft 416 kts 24°
2026-05-07 18:37 -20.93105 34.46255 25251 ft 407 kts 25°
2026-05-07 18:38 -20.90697 34.47777 25059 ft 397 kts 25°
2026-05-07 18:38 -20.88344 34.49265 24876 ft 386 kts 25°
2026-05-07 18:38 -20.86084 34.50694 24601 ft 369 kts 25°
2026-05-07 18:38 -20.83924 34.52057 24295 ft 353 kts 24°
2026-05-07 18:39 -20.81857 34.53358 24021 ft 337 kts 24°
2026-05-07 18:39 -20.79877 34.54603 23739 ft 323 kts 24°
2026-05-07 18:39 -20.77966 34.55801 23278 ft 315 kts 24°
2026-05-07 18:39 -20.76082 34.56978 22692 ft 311 kts 24°
2026-05-07 18:40 -20.74228 34.58136 22097 ft 307 kts 24°
2026-05-07 18:40 -20.72394 34.59282 21534 ft 303 kts 24°
2026-05-07 18:40 -20.70582 34.60415 20970 ft 300 kts 25°
2026-05-07 18:40 -20.68788 34.61537 20425 ft 297 kts 25°
2026-05-07 18:41 -20.67014 34.62648 19885 ft 294 kts 25°
2026-05-07 18:41 -20.65257 34.63747 19346 ft 291 kts 25°
2026-05-07 18:41 -20.63516 34.64836 18843 ft 288 kts 26°
2026-05-07 18:41 -20.61794 34.65912 18322 ft 286 kts 26°
2026-05-07 18:42 -20.60085 34.66980 17749 ft 283 kts 26°
2026-05-07 18:42 -20.58391 34.68040 17221 ft 281 kts 26°
2026-05-07 18:42 -20.56693 34.69100 16985 ft 283 kts 26°
2026-05-07 18:42 -20.55572 34.69801 16972 ft 281 kts 26°
2026-05-07 18:43 -20.53908 34.70843 16958 ft 275 kts 26°
2026-05-07 18:43 -20.52266 34.71869 16968 ft 273 kts 26°
2026-05-07 18:43 -20.50632 34.72889 16971 ft 272 kts 25°
2026-05-07 18:43 -20.48998 34.73907 16964 ft 272 kts 26°
2026-05-07 18:44 -20.47367 34.74926 16968 ft 272 kts 26°
2026-05-07 18:44 -20.45734 34.75944 16967 ft 272 kts 26°
2026-05-07 18:44 -20.44100 34.76963 16966 ft 272 kts 26°
2026-05-07 18:44 -20.42464 34.77982 16968 ft 272 kts 25°
2026-05-07 18:45 -20.40717 34.78641 16971 ft 263 kts
2026-05-07 18:45 -20.38965 34.78385 16964 ft 253 kts 333°
2026-05-07 18:45 -20.37508 34.77378 17016 ft 250 kts 318°
2026-05-07 18:45 -20.36208 34.76164 16811 ft 247 kts 316°
2026-05-07 18:46 -20.34935 34.74924 16390 ft 249 kts 316°
2026-05-07 18:46 -20.33653 34.73677 16001 ft 250 kts 316°
2026-05-07 18:46 -20.32370 34.72434 15662 ft 249 kts 316°
2026-05-07 18:46 -20.31091 34.71199 15332 ft 247 kts 316°
2026-05-07 18:47 -20.29817 34.69977 14998 ft 246 kts 316°
2026-05-07 18:47 -20.28540 34.68764 14667 ft 245 kts 317°
2026-05-07 18:47 -20.27069 34.67852 14278 ft 250 kts 341°
2026-05-07 18:47 -20.25318 34.67800 13903 ft 259 kts
2026-05-07 18:48 -20.23698 34.68676 13493 ft 268 kts 38°
2026-05-07 18:48 -20.22614 34.70301 13112 ft 274 kts 67°
2026-05-07 18:48 -20.22338 34.72296 12734 ft 274 kts 95°
2026-05-07 18:48 -20.22689 34.74280 12410 ft 272 kts 105°
2026-05-07 18:49 -20.23173 34.76216 12105 ft 269 kts 106°
2026-05-07 18:49 -20.23670 34.78132 11776 ft 268 kts 106°
2026-05-07 18:49 -20.24166 34.80036 11461 ft 266 kts 106°
2026-05-07 18:49 -20.24661 34.81927 11146 ft 265 kts 106°
2026-05-07 18:50 -20.25153 34.83807 10851 ft 262 kts 106°
2026-05-07 18:50 -20.25634 34.85642 10548 ft 261 kts 106°
2026-05-07 18:50 -20.26121 34.87498 10243 ft 259 kts 106°
2026-05-07 18:50 -20.26604 34.89341 9942 ft 258 kts 106°
2026-05-07 18:51 -20.27078 34.91199 9616 ft 256 kts 102°
2026-05-07 18:51 -20.27179 34.93050 9492 ft 255 kts 82°
2026-05-07 18:51 -20.26599 34.94805 9479 ft 251 kts 53°
2026-05-07 18:51 -20.25318 34.96002 9392 ft 244 kts 24°
2026-05-07 18:52 -20.23759 34.96698 9089 ft 243 kts 17°
2026-05-07 18:52 -20.22169 34.97294 8750 ft 242 kts 17°
2026-05-07 18:52 -20.20586 34.97884 8476 ft 240 kts 17°
2026-05-07 18:52 -20.19011 34.98475 8213 ft 239 kts 17°
2026-05-07 18:53 -20.17447 34.99068 7967 ft 238 kts 17°
2026-05-07 18:53 -20.15892 34.99663 7707 ft 237 kts 17°
2026-05-07 18:53 -20.14344 35.00256 7446 ft 236 kts 17°
2026-05-07 18:53 -20.12805 35.00847 7186 ft 235 kts 18°
2026-05-07 18:54 -20.11273 35.01435 6928 ft 234 kts 17°
2026-05-07 18:54 -20.09749 35.02017 6678 ft 232 kts 18°
2026-05-07 18:54 -20.08232 35.02598 6424 ft 231 kts 18°
2026-05-07 18:54 -20.06726 35.03175 6156 ft 229 kts 18°
2026-05-07 18:55 -20.05228 35.03751 5896 ft 228 kts 18°
2026-05-07 18:55 -20.03739 35.04323 5658 ft 227 kts 18°
2026-05-07 18:55 -20.02259 35.04891 5403 ft 226 kts 19°
2026-05-07 18:55 -20.00784 35.05456 5145 ft 224 kts 19°
2026-05-07 18:56 -19.99320 35.06019 5028 ft 224 kts 19°
2026-05-07 18:56 -19.97850 35.06583 5013 ft 224 kts 19°
2026-05-07 18:56 -19.96460 35.07320 5006 ft 225 kts 40°
2026-05-07 18:56 -19.95606 35.08682 5041 ft 225 kts 72°
2026-05-07 18:57 -19.95360 35.10343 5332 ft 231 kts 85°
2026-05-07 18:57 -19.95269 35.12057 5784 ft 233 kts 86°
2026-05-07 18:57 -19.95197 35.13775 5986 ft 233 kts 86°
2026-05-07 18:57 -19.95124 35.15497 6018 ft 233 kts 86°
2026-05-07 18:58 -19.95054 35.17197 6019 ft 235 kts 86°
2026-05-07 18:58 -19.94981 35.18926 6020 ft 234 kts 86°
2026-05-07 18:58 -19.94908 35.20659 6026 ft 235 kts 86°
2026-05-07 18:58 -19.94834 35.22395 6025 ft 235 kts 86°
2026-05-07 18:59 -19.94760 35.24130 6024 ft 235 kts 86°
2026-05-07 18:59 -19.94684 35.25864 6025 ft 236 kts 86°
2026-05-07 18:59 -19.94704 35.27599 6016 ft 236 kts 100°
2026-05-07 18:59 -19.95409 35.29147 6028 ft 234 kts 132°
2026-05-07 19:00 -19.96754 35.30072 6027 ft 233 kts 165°
2026-05-07 19:00 -19.98346 35.30110 6032 ft 230 kts 197°
2026-05-07 19:00 -19.99703 35.29264 6034 ft 227 kts 227°
2026-05-07 19:00 -20.00719 35.27971 6032 ft 228 kts 235°
2026-05-07 19:01 -20.01644 35.26605 6031 ft 228 kts 236°
2026-05-07 19:01 -20.02561 35.25221 6030 ft 229 kts 236°
2026-05-07 19:01 -20.03476 35.23839 6026 ft 229 kts 236°
2026-05-07 19:01 -20.04390 35.22462 6028 ft 228 kts 236°
2026-05-07 19:02 -20.05310 35.21078 6032 ft 228 kts 236°
2026-05-07 19:02 -20.06226 35.19699 6030 ft 228 kts 236°
2026-05-07 19:02 -20.07142 35.18321 6027 ft 228 kts 236°
2026-05-07 19:02 -20.08057 35.16945 6027 ft 228 kts 236°
2026-05-07 19:03 -20.08972 35.15569 6027 ft 227 kts 236°
2026-05-07 19:03 -20.09881 35.14191 6027 ft 228 kts 238°
2026-05-07 19:03 -20.10534 35.12669 6017 ft 226 kts 258°
2026-05-07 19:03 -20.10573 35.11047 6017 ft 223 kts 284°
2026-05-07 19:04 -20.09844 35.09596 5998 ft 222 kts 316°
2026-05-07 19:04 -20.08489 35.08895 5945 ft 223 kts 349°
2026-05-07 19:04 -20.06940 35.08738 5728 ft 223 kts 356°
2026-05-07 19:04 -20.05385 35.08668 5496 ft 224 kts 357°
2026-05-07 19:05 -20.03830 35.08598 5251 ft 223 kts 356°
2026-05-07 19:05 -20.02285 35.08517 5033 ft 221 kts 356°
2026-05-07 19:05 -20.00746 35.08426 4910 ft 222 kts 356°
2026-05-07 19:05 -19.99186 35.08328 4826 ft 221 kts 356°
2026-05-07 19:06 -19.97688 35.08230 4733 ft 209 kts 356°
2026-05-07 19:06 -19.94949 35.08056 4338 ft 189 kts 357°
2026-05-07 19:06 -19.93652 35.08165 3984 ft 187 kts 11°
2026-05-07 19:07 -19.92377 35.08484 3741 ft 189 kts 14°
2026-05-07 19:07 -19.91106 35.08843 3561 ft 188 kts 14°
2026-05-07 19:07 -19.89843 35.09205 3389 ft 189 kts 14°
2026-05-07 19:07 -19.88612 35.09555 3240 ft 177 kts 14°
2026-05-07 19:08 -19.87415 35.09874 3123 ft 175 kts 11°
2026-05-07 19:08 -19.86229 35.09914 3012 ft 169 kts 351°
2026-05-07 19:08 -19.85151 35.09492 2925 ft 163 kts 327°
2026-05-07 19:08 -19.84347 35.08688 2828 ft 159 kts 304°
2026-05-07 19:09 -19.83873 35.07634 2790 ft 159 kts 287°
2026-05-07 19:09 -19.83576 35.06502 2732 ft 159 kts 283°
2026-05-07 19:09 -19.83303 35.05368 2670 ft 159 kts 283°
2026-05-07 19:09 -19.83028 35.04236 2608 ft 159 kts 283°
2026-05-07 19:10 -19.82750 35.03091 2474 ft 160 kts 283°
2026-05-07 19:10 -19.82467 35.01951 2367 ft 158 kts 283°
2026-05-07 19:10 -19.82192 35.00854 2196 ft 151 kts 283°
2026-05-07 19:10 -19.81918 34.99775 1831 ft 153 kts 283°
2026-05-07 19:11 -19.81643 34.98674 1447 ft 155 kts 281°
2026-05-07 19:11 -19.81363 34.97594 1239 ft 149 kts 282°
2026-05-07 19:11 -19.81097 34.96536 1021 ft 148 kts 282°
2026-05-07 19:11 -19.80830 34.95482 807 ft 148 kts 283°
2026-05-07 19:12 -19.80566 34.94435 611 ft 146 kts 284°
2026-05-07 19:12 -19.80306 34.93404 390 ft 143 kts 284°
2026-05-07 19:12 -19.80065 34.92395 203 ft 137 kts 283°
2026-05-07 19:12 -19.79822 34.91455 48 ft 125 kts 285°
2026-05-07 19:13 -19.79639 34.90746 45 ft 73 kts 284°
2026-05-07 19:13 -19.79595 34.90484 45 ft 19 kts 237°
2026-05-07 19:13 -19.79694 34.90437 47 ft 14 kts 213°
2026-05-07 19:13 -19.79716 34.90365 46 ft 9 kts 283°
2026-05-07 19:14 -19.79699 34.90307 46 ft 5 kts 298°
2026-05-07 19:14 -19.79703 34.90284 45 ft 1 kts 236°
2026-05-07 19:35 -19.79713 34.90266 46 ft 0 kts 211°